Location: Baia de Cri?
(46.1667°N, 22.7167°E)
Time: 20:54:14
(UTC+00:00)

Meteor 2-13 Rocket - Pass Details

Date: 15 January 2026
Orbit: 935 x 958 km, 82.5° (Epoch: 10 February)

Event Time Altitude Azimuth Distance (km) Brightness Sun altitude
Rises 03:58:16 0° 349° (N) 3,637 7.3 -21.9°
Reaches altitude 10° 04:00:47 10° 348° (NNW) 2,685 6.6 -21.5°
Maximum altitude 04:06:54 76° 264° (W) 977 4.3 -20.4°
Drops below altitude 10° 04:12:57 10° 180° (S) 2,650 6.9 -19.4°
Sets 04:15:25 0° 179° (S) 3,588 7.6 -19.0°
